Location: Ku?niki
(51.4449°N, 17.8974°E)
Time: 11:18:27
(UTC+00:00)

Cosmos 1842 - Pass Details

Date: 18 September 2020
Orbit: 521 x 536 km, 82.5° (Epoch: 25 October)

Event Time Altitude Azimuth Distance (km) Brightness Sun altitude
Rises 17:24:46 0° 350° (N) 2,666 7.1 -5.4°
Reaches altitude 10° 17:26:55 10° 351° (N) 1,772 6.2 -5.8°
Maximum altitude 17:30:49 81° 78° (ENE) 537 3.2 -6.4°
Drops below altitude 10° 17:34:41 10° 167° (SSE) 1,758 5.7 -6.9°
Sets 17:36:48 0° 169° (SSE) 2,643 6.6 -7.3°
